Wind_Gust
20 20 20 21 21 20 19 20 20 20 19 21 21 22 23 22 24 24 23 22 23 19 23 19 20 23 24 25 22 23 25 19 22 24 25 26 24 22 25 23 22 22 22 21 23 25 25 24 23 20 21 23 22 27 30 30 31 30 30 30 30 28 24 19 22 22 25 26 27 26 26 26 24 25
21 23 23 24 23 21 20 21 20 20 21 21 21 22 23 23 26 26 27 25 18 17 17 20 17 19 24 24 22 23 24 14 25 25 26 25 27 20 27 24 24 23 22 21 21 21 23 25 26 26 25 26 27 27 30 30 31 30 29 28 27 25 23 22 22 23 26 27 26 26 27 26 25 26
21 22 23 22 22 21 21 21 20 19 20 22 22 21 21 23 22 26 26 29 22 19 18 19 18 16 19 22 22 21 22 20 26 26 24 25 18 18 24 25 26 25 24 23 22 21 21 21 24 25 25 25 27 28 29 31 32 29 25 24 23 23 23 23 22 24 26 28 28 26 25 26 27 27
22 22 24 23 23 21 21 22 22 22 21 20 22 21 20 20 21 20 25 28 27 19 19 18 18 18 17 19 21 22 20 20 21 24 25 25 13 21 23 22 26 26 25 25 23 22 22 22 21 23 25 24 25 26 27 28 26 25 24 23 22 21 21 23 24 24 27 30 29 28 27 27 28 29
22 25 25 25 24 22 22 21 22 22 22 22 23 22 23 24 23 23 22 26 25 22 20 21 21 18 17 19 20 21 21 19 22 20 24 23 24 25 27 25 23 26 26 26 26 24 23 23 23 23 24 25 26 25 24 23 23 24 25 26 24 23 22 22 24 25 26 29 30 29 29 29 29 30
21 21 25 25 23 22 23 23 24 23 22 22 23 23 24 24 24 20 24 25 26 24 18 20 19 20 18 20 19 23 23 23 19 24 25 23 24 27 25 27 25 28 26 26 26 26 26 25 24 23 22 22 22 24 24 23 24 24 26 27 27 26 26 25 25 26 27 28 29 29 28 28 28 26
21 22 22 23 22 21 23 23 23 22 22 22 24 23 23 23 23 23 21 22 24 22 23 19 20 20 20 22 22 23 24 20 21 22 24 25 23 24 24 25 25 25 29 28 28 28 27 26 25 23 23 21 19 19 22 23 23 26 26 27 28 28 27 28 27 28 29 28 29 30 29 29 29 28
21 22 22 22 21 21 23 23 23 24 23 23 23 23 23 23 22 22 22 21 22 21 24 20 22 20 20 22 20 18 19 21 22 23 21 21 23 23 24 25 25 22 28 27 28 28 27 27 26 26 25 24 23 21 19 21 22 24 27 28 29 29 28 28 28 29 30 30 29 30 31 31 31 31
19 20 21 22 20 21 22 22 23 22 22 24 23 23 23 23 22 21 22 22 22 21 22 21 21 19 20 20 20 20 22 21 23 22 22 23 23 21 21 22 26 14 22 25 27 27 28 28 27 27 26 25 25 24 22 21 21 24 27 29 30 30 29 29 29 30 31 31 31 30 30 30 30 31
20 21 21 20 19 20 23 23 22 22 23 23 23 23 23 23 21 21 21 22 22 22 22 20 24 20 23 23 22 20 21 21 23 23 22 19 19 20 21 23 22 23 18 18 24 21 25 27 29 28 27 27 26 26 25 24 23 23 25 27 29 30 30 30 30 30 31 31 31 31 30 30 30 30
17 21 21 21 21 21 22 23 23 23 21 23 22 22 22 22 21 21 22 23 22 23 23 23 23 23 22 22 23 21 21 22 23 22 22 24 21 21 22 22 23 22 23 17 16 19 19 19 24 23 27 27 27 27 27 27 28 26 26 26 28 29 31 31 31 31 31 32 32 31 30 30 30 31
16 17 19 21 21 21 21 22 22 22 22 21 22 23 22 22 22 23 23 22 23 23 23 25 25 22 23 23 25 22 22 24 23 24 24 23 24 25 24 25 24 23 22 23 21 15 16 17 22 23 25 30 29 29 28 30 29 30 28 27 28 29 29 30 31 31 32 32 32 32 32 31 31 31
17 17 19 19 20 21 16 14 13 13 11 19 23 22 22 22 22 23 24 24 24 25 24 24 23 24 25 25 23 24 25 27 25 24 24 26 25 26 27 25 25 25 25 23 22 23 25 27 29 28 27 28 30 32 32 27 32 32 30 32 31 30 30 30 31 32 33 33 33 33 33 33 33 33
17 17 18 19 15 16 16 16 17 16 16 16 20 24 21 23 23 24 24 27 26 26 27 27 27 26 27 26 26 27 26 24 23 24 25 29 27 24 24 23 27 25 24 23 23 24 22 26 27 28 31 30 29 29 30 33 32 31 35 35 34 34 33 32 32 33 34 34 34 34 34 34 34 34
16 17 18 18 16 16 15 20 18 18 18 18 19 20 18 17 22 24 26 27 26 28 29 28 27 28 28 27 26 26 26 25 25 25 26 28 27 28 26 29 26 25 25 27 25 26 24 25 29 30 32 31 29 31 38 27 32 33 33 36 36 35 35 34 34 34 35 34 34 35 34 35 35 35
18 17 17 17 16 17 19 19 19 19 19 20 21 22 21 20 20 19 27 27 29 26 28 30 28 28 29 29 28 28 28 26 25 25 26 27 27 29 29 29 29 23 27 26 26 28 25 26 28 29 31 28 29 33 26 25 28 33 35 35 36 37 37 36 35 35 35 35 34 34 34 35 35 35
21 19 19 19 18 19 16 20 21 21 21 17 22 24 24 23 23 22 23 22 29 27 28 29 30 29 28 29 29 28 29 23 24 25 28 27 28 28 30 30 28 20 25 25 26 27 25 25 27 31 30 29 28 29 21 25 27 30 32 34 34 34 35 36 36 35 35 34 34 34 35 35 35 35
20 20 20 20 19 18 18 20 20 21 21 21 20 20 20 23 27 21 23 24 25 24 29 31 32 30 28 31 26 23 21 24 27 27 27 25 26 27 30 24 25 22 23 29 27 29 27 26 26 31 30 29 28 29 24 27 29 30 32 31 32 33 33 34 34 35 35 35 35 35 35 36 36 36
19 20 21 21 22 21 21 21 17 21 21 21 22 22 23 24 25 24 27 24 24 24 24 31 35 33 31 31 29 26 24 24 27 26 26 26 24 26 24 26 25 25 24 25 27 33 29 26 28 32 31 28 29 27 20 22 27 29 28 29 30 32 33 34 34 34 35 35 36 36 36 36 36 36
19 20 20 21 22 22 22 16 16 17 20 24 24 25 24 25 25 27 19 19 21 26 26 27 32 34 33 23 29 25 25 25 26 24 24 24 25 28 30 31 28 29 28 27 28 31 33 28 30 32 29 28 28 28 29 20 28 28 30 31 32 32 32 33 34 34 35 35 36 36 35 35 35 35
19 20 21 22 23 23 24 15 17 19 18 23 27 27 26 26 25 28 24 19 21 22 22 23 22 23 22 21 20 21 19 18 20 26 28 31 28 29 31 32 32 33 30 29 29 33 32 28 30 31 29 27 27 29 29 24 21 29 29 31 31 31 32 32 33 34 35 35 35 35 36 36 35 34
21 21 19 21 24 25 25 15 17 19 18 23 26 27 27 27 28 27 25 24 20 21 24 24 24 24 23 21 21 19 18 18 13 29 36 31 30 33 32 37 34 33 32 28 28 32 33 28 28 30 29 26 32 31 29 29 23 24 24 29 30 31 32 33 34 34 35 34 34 34 35 34 31 31
21 22 18 20 22 22 21 17 19 20 18 23 24 26 27 29 29 27 24 26 27 24 20 22 22 24 21 25 25 24 23 22 18 26 34 34 34 38 36 35 35 38 38 29 26 34 33 31 29 28 33 37 31 29 31 27 26 22 22 25 30 28 31 32 32 31 32 32 32 34 34 34 25 28
19 20 22 20 16 20 20 20 20 19 20 21 25 26 28 29 31 27 27 27 27 27 29 28 24 26 27 28 27 26 27 26 26 27 32 35 37 37 36 36 37 41 38 25 28 34 33 31 32 31 31 35 38 28 26 30 27 26 25 24 22 23 28 28 25 31 30 29 32 33 34 32 25 31
23 23 21 22 16 18 18 20 22 22 21 20 23 27 31 28 22 21 26 26 19 28 28 27 28 30 28 28 28 28 29 29 27 27 28 33 37 38 37 38 38 41 36 27 22 31 34 30 33 29 31 34 32 32 29 25 24 26 24 24 25 22 20 24 20 27 22 31 33 34 33 32 32 33
22 22 22 22 17 18 19 19 20 22 21 23 22 25 20 19 21 27 26 29 30 30 29 29 29 30 30 30 31 30 30 30 27 28 28 28 32 38 38 39 38 38 37 26 22 32 35 35 32 32 30 33 31 29 33 31 26 25 22 25 25 25 23 20 20 24 23 23 27 28 35 33 30 36
24 23 23 22 17 20 21 21 22 21 22 19 21 20 19 20 22 20 23 24 28 29 30 30 29 28 29 28 28 28 29 27 25 27 28 30 33 32 34 36 37 37 34 27 23 26 32 35 28 30 33 31 32 29 29 32 29 21 23 25 24 25 25 24 26 23 22 22 23 22 27 27 29 31
24 25 23 22 20 22 21 21 21 21 21 24 20 20 20 19 17 19 19 18 21 21 25 27 30 32 30 31 30 29 27 28 27 29 28 28 28 31 32 34 35 37 36 33 34 28 30 32 30 28 30 31 34 34 34 29 28 28 28 24 25 25 25 26 27 24 24 25 25 21 20 21 25 30
25 19 19 21 22 22 22 23 21 19 21 24 22 21 20 19 19 17 18 19 20 23 26 27 28 30 30 30 32 28 28 26 28 28 28 28 28 29 30 30 29 29 27 27 30 29 29 31 33 31 33 31 34 34 34 34 30 29 27 26 30 24 24 25 24 26 26 27 28 27 29 27 24 26
24 25 23 23 22 21 22 21 17 16 18 14 17 17 16 15 17 17 17 16 18 21 23 24 26 28 29 32 32 30 29 31 31 29 30 27 29 29 28 29 31 32 31 29 30 31 31 30 28 29 31 33 33 35 32 33 34 32 27 29 30 24 25 26 25 26 24 26 28 27 28 27 28 23
20 19 19 17 15 15 17 17 15 16 17 18 18 18 17 17 18 18 19 20 20 20 20 20 23 25 30 31 30 31 31 32 33 32 30 33 30 26 27 30 32 34 33 31 29 31 31 28 27 28 34 33 33 34 33 33 33 33 31 30 28 33 24 23 23 25 25 27 27 29 29 28 28 23
18 18 10 14 17 18 19 19 19 20 19 19 18 20 20 21 21 20 17 16 21 23 23 25 25 26 27 29 31 31 32 33 33 31 31 30 31 31 32 36 35 34 34 32 31 27 23 29 29 28 32 32 36 35 34 34 35 34 33 30 30 34 33 34 33 31 29 29 31 31 29 27 27 26
17 17 19 21 22 22 22 22 21 21 22 21 22 22 23 22 23 22 21 21 21 22 22 23 24 26 26 27 27 28 32 33 33 30 31 31 33 30 31 34 36 36 35 35 32 33 33 34 30 33 33 32 33 33 34 36 35 33 32 30 31 33 33 31 29 30 25 29 30 30 28 28 26 29
21 23 24 24 24 24 24 24 24 24 23 22 22 22 16 21 21 19 19 20 20 20 19 19 19 22 23 25 26 29 30 32 32 30 23 33 31 32 33 31 36 37 34 35 35 35 35 34 32 33 32 32 33 35 32 33 33 31 31 30 29 33 31 30 31 29 30 30 30 31 32 29 27 26
25 25 25 25 25 24 24 24 24 23 23 22 22 21 21 21 21 19 19 20 18 17 19 18 19 19 19 19 20 22 24 26 30 30 26 28 29 30 32 34 33 35 37 36 35 34 34 33 33 35 35 32 32 33 23 29 30 31 31 32 31 31 31 30 27 28 27 30 28 27 30 33 30 23
24 24 24 24 24 24 24 23 22 23 23 23 22 21 21 22 21 21 21 21 19 18 19 19 17 18 19 20 19 19 19 17 18 20 20 22 22 26 28 28 27 29 30 33 33 33 30 30 30 30 30 31 30 29 32 26 29 31 31 31 32 30 31 28 26 28 30 27 26 28 28 30 31 27
23 23 23 23 23 23 22 22 22 22 22 22 22 21 21 21 21 20 20 17 17 16 18 18 19 19 18 18 17 13 15 17 20 17 19 23 19 21 24 21 24 24 23 24 23 25 27 28 27 27 26 28 30 27 26 22 22 24 27 27 27 27 27 27 26 26 26 26 28 27 29 29 28 28
23 22 22 22 21 21 20 19 19 20 21 20 21 20 20 20 20 20 19 19 20 19 19 18 17 17 18 18 19 19 19 19 18 17 18 21 23 21 23 23 23 19 20 20 20 21 22 22 22 23 23 24 21 21 23 15 18 16 17 23 24 24 23 25 27 27 26 25 27 28 27 29 28 29
22 21 20 21 20 20 20 20 19 18 18 19 19 19 19 19 19 19 19 19 19 18 18 18 17 17 17 19 17 17 16 17 18 16 17 18 18 19 20 20 19 19 19 17 17 17 18 20 23 21 21 22 20 23 23 17 18 19 20 15 20 21 18 19 21 23 21 22 23 26 28 27 24 12
20 18 19 19 19 20 19 19 19 18 18 18 18 18 18 18 18 19 19 18 19 18 18 17 18 16 17 17 17 17 16 15 16 17 18 17 17 15 17 18 18 19 18 16 16 17 17 18 19 19 18 16 18 19 16 15 17 16 18 19 12 17 15 13 15 17 17 17 17 18 19 22 23 23
19 19 19 18 18 18 18 19 19 18 17 17 17 14 17 16 16 18 18 19 17 19 19 19 19 18 18 18 17 18 16 14 17 16 17 17 14 13 15 12 16 18 16 17 17 16 17 18 16 12 15 18 17 18 15 15 18 14 17 11 9 11 12 10 16 16 17 16 17 18 17 18 19 23
16 17 16 17 17 17 16 17 18 18 18 18 17 17 17 16 15 13 16 16 18 18 19 19 20 17 18 18 18 16 15 16 16 17 18 19 20 18 16 13 16 17 16 14 17 19 20 20 18 17 14 14 12 13 18 17 16 17 19 15 16 12 12 9 10 11 16 18 17 20 22 20 17 21
13 14 14 14 14 15 15 15 15 15 16 15 16 16 16 17 17 18 18 19 19 18 18 18 19 18 17 18 17 16 15 14 16 17 17 17 17 17 17 17 17 18 17 18 18 17 19 19 17 17 17 12 11 11 16 14 14 15 16 17 14 16 15 9 13 12 12 13 13 17 18 20 18 23
13 13 14 13 14 14 14 14 15 15 15 15 15 15 15 16 16 16 16 17 16 17 16 17 17 17 17 17 16 15 15 16 16 15 15 15 14 17 17 16 14 17 17 15 17 17 14 16 15 15 13 10 10 10 11 11 14 13 15 14 13 12 14 13 13 10 12 15 15 12 14 15 16 16
13 13 14 14 13 14 14 14 14 14 14 14 15 14 14 14 13 15 15 15 14 15 13 14 15 16 17 17 17 17 17 12 14 14 16 16 15 15 14 17 16 16 15 15 17 15 15 15 13 13 10 8 8 8 9 10 12 12 12 10 11 11 13 14 15 14 13 13 12 12 9 10 12 14
Wind_Speed
8 6 7 7 7 7 7 8 8 7 7 7 7 8 8 8 9 8 8 7 7 7 8 7 8 9 8 8 8 8 9 9 13 11 13 13 12 17 20 19 18 18 17 17 19 20 21 19 18 15 14 16 18 18 21 22 23 23 22 22 23 22 19 16 12 14 17 20 21 19 20 20 19 18
7 7 8 11 8 8 7 7 8 8 8 8 8 8 9 9 10 9 9 8 6 5 5 5 6 8 7 8 8 8 9 12 15 11 11 12 14 17 22 20 19 19 17 17 17 18 18 20 21 20 19 18 19 19 20 22 23 23 23 22 21 19 19 18 17 17 19 18 19 20 18 20 20 20
8 10 12 10 8 7 8 8 7 7 8 8 8 9 9 10 10 11 10 10 8 7 7 5 6 5 7 7 7 7 7 12 14 11 10 11 14 13 17 20 20 20 19 18 18 17 17 17 19 21 21 21 20 21 21 22 23 23 20 18 18 19 19 18 17 18 21 21 19 20 19 18 20 21
8 9 9 9 8 8 8 9 9 8 8 8 9 9 9 9 9 9 10 12 12 8 7 7 7 8 8 8 8 8 6 10 17 10 10 10 9 10 10 17 20 21 21 21 19 18 18 18 17 19 20 20 21 20 21 20 21 19 20 18 17 16 18 19 20 19 22 23 22 22 21 21 21 22
8 9 10 10 10 9 9 8 8 9 9 9 8 9 9 10 9 10 10 11 11 9 8 8 8 8 8 8 9 8 7 8 10 11 9 9 9 10 11 11 19 20 21 21 21 20 19 19 18 18 19 20 21 21 20 19 19 20 21 21 20 19 18 18 20 21 21 23 24 24 23 23 23 24
8 9 10 10 10 11 11 10 10 9 9 9 10 10 10 10 10 10 10 10 10 10 8 8 7 8 8 9 8 8 9 8 8 10 9 8 9 10 10 11 11 23 20 21 20 21 21 21 20 19 18 18 18 20 20 19 20 20 22 22 22 22 22 21 20 21 22 22 23 23 23 22 22 21
9 10 10 10 10 8 10 10 9 9 9 9 10 10 9 10 10 10 11 10 10 10 9 8 8 8 8 9 9 9 9 8 8 9 10 9 8 8 10 10 9 21 23 22 21 21 21 21 20 19 18 17 15 16 19 19 19 21 21 22 23 23 23 23 22 23 23 23 23 23 23 23 23 23
9 10 10 10 10 10 11 10 9 9 9 9 9 10 10 10 10 10 10 11 10 9 10 8 9 8 9 9 10 9 8 9 9 9 9 9 9 9 9 11 10 12 23 22 22 21 21 20 20 20 20 19 17 15 15 17 19 20 21 22 23 23 23 23 23 24 24 24 24 24 24 24 24 24
9 9 10 10 10 10 11 10 10 9 11 10 10 10 9 10 9 8 9 9 10 10 10 9 8 8 8 7 8 9 9 9 10 10 10 9 9 9 9 9 10 7 18 20 21 21 21 21 20 20 19 20 20 19 17 16 18 19 20 22 22 23 23 23 23 24 24 25 25 24 24 24 24 25
9 9 9 9 9 10 10 9 9 10 12 11 11 11 10 10 9 9 9 9 10 10 10 10 9 8 9 8 9 9 10 9 9 9 10 9 9 8 8 9 8 9 5 6 9 14 16 20 21 21 20 21 21 21 20 20 19 19 20 21 22 23 24 24 24 24 24 25 25 25 25 24 25 25
9 9 8 9 10 10 10 8 9 11 11 10 11 11 10 10 9 8 9 9 10 10 10 10 10 8 8 9 9 9 10 10 10 10 9 10 9 9 10 10 10 10 9 10 13 12 12 15 16 19 22 22 22 22 22 22 22 21 20 20 21 22 23 24 24 24 24 24 24 25 24 24 24 25
8 9 9 10 10 10 10 10 12 12 10 9 10 10 8 9 10 9 9 8 8 9 9 9 9 9 9 8 10 8 9 11 11 11 10 10 10 11 11 11 11 11 11 10 9 11 12 11 14 17 20 24 24 24 23 24 23 24 23 22 22 22 24 24 24 24 24 24 24 25 24 24 24 24
9 8 8 9 10 11 11 7 5 5 5 5 8 8 9 11 9 9 8 8 8 9 9 9 8 8 9 9 10 9 11 12 11 9 10 10 10 10 11 11 12 10 12 11 10 9 10 12 14 14 13 14 21 22 26 21 26 25 23 24 24 24 24 25 25 25 25 25 25 25 25 26 25 25
9 9 9 8 11 10 8 6 6 6 7 5 6 7 7 8 8 8 9 9 9 9 9 9 8 9 9 9 9 11 11 10 10 10 10 11 10 10 10 10 11 12 11 11 11 11 9 11 11 13 14 14 13 13 14 16 18 22 27 27 27 27 27 26 26 26 27 27 27 27 27 27 26 26
8 8 8 8 9 10 10 10 11 10 9 11 11 12 12 10 7 8 9 10 9 9 9 8 8 9 9 9 9 8 11 11 11 10 10 10 10 11 10 11 10 11 12 11 11 11 10 11 13 12 13 13 14 15 18 19 23 24 25 28 28 28 28 27 27 27 27 27 27 27 27 27 27 27
9 8 8 7 7 8 9 10 9 11 14 14 14 14 12 12 13 11 10 9 9 11 10 10 10 10 9 9 8 9 12 11 10 10 11 11 11 11 11 10 12 8 13 11 11 12 11 12 12 12 13 13 13 15 17 20 22 25 28 27 28 28 28 28 28 28 27 27 26 26 27 27 27 27
11 9 8 8 7 7 10 11 10 9 8 12 17 16 16 16 15 15 15 14 11 10 11 11 11 11 10 10 9 12 14 9 9 10 10 11 11 11 12 12 12 9 10 11 11 12 11 12 13 15 14 13 13 13 16 19 21 24 26 27 27 26 27 27 27 27 27 27 26 26 26 26 26 27
10 10 10 10 9 9 9 8 9 10 11 7 8 8 8 8 12 15 17 17 17 14 11 13 13 13 12 12 11 13 11 10 10 10 10 11 11 11 12 12 11 9 7 12 11 11 12 12 11 14 15 13 14 14 16 21 23 24 26 25 26 26 26 26 27 27 27 27 27 27 27 26 27 27
9 10 9 10 11 11 10 9 9 11 11 11 11 11 11 12 12 11 11 10 9 10 11 14 16 16 15 14 14 13 12 11 10 10 12 12 10 10 10 11 12 10 10 12 11 14 12 10 11 13 15 13 14 13 15 18 22 23 23 24 24 26 26 26 26 27 28 28 28 28 28 28 28 28
9 9 10 10 11 11 11 11 10 9 9 12 13 13 12 12 12 12 12 11 13 13 12 13 15 15 16 14 14 13 12 10 9 10 11 9 11 12 11 11 9 12 12 13 13 12 13 11 11 12 12 12 13 13 14 17 22 22 24 25 25 26 26 26 26 27 27 28 28 28 28 28 28 28
9 9 10 10 9 11 11 10 6 6 5 11 14 14 14 12 12 12 10 11 14 16 17 17 17 18 18 16 16 16 16 12 9 10 8 12 11 11 12 10 10 12 12 12 12 14 14 11 12 13 13 13 12 12 14 11 17 23 23 24 25 25 25 25 26 26 27 27 28 28 28 28 28 28
8 9 9 9 11 11 11 6 11 7 4 9 13 14 14 14 14 13 11 10 9 15 18 18 19 19 18 18 18 17 15 15 10 11 17 15 12 14 13 13 11 12 12 10 11 13 15 11 11 11 11 12 13 14 13 13 11 18 20 23 24 24 24 25 25 25 26 27 27 27 27 26 24 16
7 7 7 5 5 8 9 12 13 10 6 9 11 12 13 14 15 12 12 12 12 11 10 11 12 13 15 15 13 13 18 18 14 12 17 16 16 18 15 15 13 13 13 13 14 14 14 14 12 11 11 13 13 13 13 11 12 8 8 11 14 21 22 22 22 22 23 23 22 22 22 22 16 11
6 6 7 7 7 6 6 9 11 11 9 8 12 12 12 13 14 12 12 13 13 13 13 13 11 12 14 14 14 14 14 14 16 15 15 17 18 18 18 16 15 15 11 10 13 13 12 13 14 12 13 13 11 10 11 13 13 12 11 11 10 15 20 21 17 21 21 21 23 22 22 21 16 12
6 5 5 7 13 14 14 13 11 9 10 8 8 10 12 11 10 13 11 12 12 12 12 13 13 13 13 13 13 13 13 14 13 13 15 16 19 19 18 18 17 18 16 11 10 13 12 12 14 13 13 13 13 12 11 10 11 12 12 11 12 10 9 11 11 12 17 24 23 23 22 22 22 18
7 7 7 8 10 15 14 14 14 13 11 9 8 9 11 15 16 12 12 12 12 12 13 14 13 12 12 14 15 14 14 14 14 14 14 14 17 19 18 17 18 16 16 11 14 14 14 14 13 13 12 12 13 13 12 11 10 10 10 10 10 10 9 8 9 10 10 10 12 18 20 24 23 27
6 7 8 8 13 17 17 15 14 14 14 12 11 11 11 11 12 10 10 10 12 12 12 14 14 13 13 13 13 13 12 12 12 11 10 13 14 15 16 18 14 13 12 13 7 11 13 13 12 12 13 13 14 13 13 12 10 8 10 11 11 11 10 9 11 10 10 10 9 17 22 22 24 26
6 7 8 10 14 15 15 14 13 13 11 9 12 12 14 14 13 8 9 9 9 10 11 13 13 14 14 13 13 13 13 13 13 11 11 14 16 17 14 14 15 15 16 15 16 10 12 16 12 12 13 13 14 16 15 12 11 11 11 9 10 10 10 10 10 11 11 11 12 8 7 8 11 14
6 8 10 12 12 12 11 11 10 8 9 9 11 12 11 10 7 7 8 8 8 9 12 13 13 14 13 13 14 12 13 13 13 14 12 13 11 10 12 9 10 12 9 9 11 13 12 11 12 9 9 10 12 13 13 13 12 12 12 11 12 11 11 10 10 11 11 11 11 11 12 12 9 11
10 6 8 8 8 5 6 6 6 7 7 10 10 8 7 4 5 6 7 7 8 8 9 10 12 13 13 14 14 14 13 13 14 13 13 10 8 9 10 10 13 13 11 11 13 14 11 10 10 8 9 8 11 14 15 15 13 12 11 12 11 10 10 11 11 11 11 11 12 12 12 10 10 8
5 5 5 5 6 4 4 2 2 5 7 7 8 7 8 8 7 6 6 7 9 9 9 9 10 11 12 12 12 12 12 13 13 13 13 12 10 11 11 10 11 13 13 15 14 12 14 11 7 9 10 11 11 12 13 15 16 12 12 12 11 12 8 9 10 11 10 11 11 12 12 12 12 12
6 5 3 2 4 6 6 7 6 8 8 8 8 8 7 6 6 6 7 8 8 8 9 9 9 10 11 12 13 12 13 14 13 13 13 11 10 15 15 14 14 14 13 13 14 12 10 8 11 11 13 13 14 15 14 14 14 14 13 11 11 10 10 11 11 11 10 11 13 14 13 12 12 11
4 8 8 9 9 10 10 9 9 9 8 9 9 10 10 8 8 8 8 8 7 7 7 7 8 9 9 10 11 12 12 13 13 14 14 14 15 12 14 15 16 13 13 14 13 13 13 14 15 16 14 14 14 13 15 13 13 14 12 11 12 13 13 13 11 11 11 13 13 13 13 13 12 11
7 8 9 9 10 10 11 11 11 10 10 9 9 10 10 9 9 8 8 7 7 8 7 5 6 6 7 8 9 9 10 11 11 11 12 12 12 10 13 14 13 13 12 11 13 13 15 16 14 13 14 14 15 18 13 11 13 12 13 10 10 12 12 10 12 12 12 12 12 12 13 11 10 10
7 8 9 9 9 9 9 10 10 11 11 10 10 10 9 9 9 9 9 9 8 7 7 7 6 6 6 6 5 7 8 9 9 10 10 11 11 10 11 13 14 14 12 13 16 12 12 12 12 14 15 12 11 12 15 11 10 13 11 10 10 10 9 9 10 8 8 8 12 12 13 13 12 8
6 7 7 8 8 8 9 10 9 10 10 10 9 9 9 9 9 9 9 10 8 8 8 7 7 7 7 7 7 7 7 7 7 7 8 8 8 8 7 7 9 11 12 10 10 10 14 15 13 10 9 9 9 9 11 11 13 11 12 8 10 12 9 9 13 8 12 11 9 13 12 12 10 8
8 7 7 7 8 7 7 7 8 8 8 8 8 8 9 9 9 9 9 8 7 7 8 8 8 8 7 7 7 5 7 7 8 8 7 6 6 6 8 8 8 7 7 8 8 7 7 8 11 10 10 10 11 8 8 5 12 15 9 10 10 8 7 9 10 10 9 9 10 11 11 12 10 7
8 7 7 7 7 7 6 6 6 6 6 7 7 7 7 8 8 9 9 8 9 8 7 7 8 8 8 8 8 7 7 7 7 7 7 7 7 7 8 8 8 7 7 6 5 4 5 6 6 7 8 8 7 5 5 3 2 3 10 5 4 5 5 6 8 6 7 7 9 9 9 12 9 8
6 6 6 6 6 6 6 6 5 5 5 5 5 6 6 7 7 7 8 8 8 8 8 7 8 8 8 8 8 8 7 7 8 8 8 7 7 7 8 8 7 7 8 8 7 5 5 5 6 6 6 4 3 4 5 4 5 6 11 10 4 6 6 6 7 8 8 7 8 10 11 10 11 8
5 5 5 5 5 5 5 5 6 5 5 5 5 5 5 5 6 6 7 7 8 8 7 7 8 8 7 8 8 8 8 7 7 7 8 8 7 7 8 8 8 8 8 7 7 7 6 7 8 8 8 6 5 6 4 3 4 5 8 10 1 4 3 2 2 4 5 4 5 6 8 9 8 10
5 5 5 5 5 5 5 5 5 6 5 5 5 4 4 5 4 5 5 6 5 7 6 7 7 7 7 7 7 8 7 6 8 7 7 7 6 5 6 8 7 8 7 8 7 7 6 7 8 10 10 7 7 6 3 3 3 2 2 1 3 1 5 3 4 6 6 7 7 8 7 7 7 9
5 5 4 5 5 5 5 5 5 5 6 5 5 5 5 5 4 3 4 3 5 5 6 6 7 6 6 7 7 6 6 6 7 7 8 9 8 9 8 7 7 8 7 6 7 8 8 9 9 8 6 6 3 3 3 4 4 3 3 2 3 8 8 6 4 6 7 7 6 7 8 7 6 8
4 5 5 4 5 5 5 5 5 5 5 6 5 5 5 5 6 6 5 5 6 5 5 5 6 5 6 6 5 5 6 6 6 7 8 7 8 7 7 7 8 8 8 8 8 8 8 8 7 7 6 3 3 3 4 4 4 5 4 3 3 4 3 5 10 8 9 11 10 9 6 6 6 7
5 5 5 5 5 5 5 5 5 5 5 6 6 5 5 6 6 6 6 5 4 4 5 5 5 5 6 6 6 5 5 6 6 7 7 6 6 7 8 7 6 7 8 6 6 6 6 5 5 4 4 3 3 2 3 3 4 4 4 4 4 4 4 4 2 6 9 12 12 10 11 10 9 10
4 5 5 5 5 4 5 5 5 5 5 5 5 5 5 5 3 6 6 5 4 5 5 5 5 5 6 6 6 6 6 7 7 6 6 6 5 6 6 7 7 7 6 6 6 6 6 6 3 3 3 3 2 2 3 3 3 4 4 3 3 3 4 3 3 4 4 3 7 10 7 9 10 11
Wind_Direction
210 229 238 242 233 232 231 236 241 238 242 247 250 251 255 257 263 260 258 247 243 236 223 238 196 205 199 197 197 200 208 178 161 201 216 213 217 186 198 202 208 211 211 214 219 221 209 207 211 217 214 201 200 206 214 210 208 212 212 212 212 212 214 222 211 203 209 217 222 219 208 212 211 215
202 213 235 239 233 233 228 232 232 231 233 240 243 248 249 252 257 262 266 265 263 264 243 217 246 178 206 189 195 203 212 151 170 209 210 216 220 178 193 199 206 210 211 214 218 226 226 216 214 215 218 216 205 203 209 215 216 216 216 213 211 213 212 213 206 203 210 216 225 225 216 207 208 212
221 211 216 221 227 223 228 233 229 229 229 231 237 241 247 248 249 256 259 264 253 259 260 250 230 240 207 206 199 203 220 160 181 205 212 217 219 177 191 197 204 208 210 212 217 220 225 228 217 214 216 217 216 207 206 212 215 218 222 219 214 210 212 216 211 207 209 213 218 224 224 218 213 211
221 224 224 224 226 221 226 226 228 230 228 233 239 239 240 243 245 247 250 254 262 247 257 255 257 237 243 219 209 203 221 153 180 207 208 215 176 177 212 197 206 208 211 212 213 215 221 226 226 217 213 213 214 214 212 209 212 211 215 218 217 216 210 213 214 211 208 212 213 220 224 219 217 212
226 228 229 228 224 225 226 226 226 228 228 225 232 239 240 239 237 238 243 249 252 251 246 254 249 254 250 228 215 221 212 174 188 208 212 213 212 216 226 207 200 211 214 215 214 213 216 221 224 224 218 213 211 212 210 207 208 206 207 211 211 212 214 215 215 214 213 214 215 215 220 220 215 213
225 229 236 234 230 225 226 227 229 224 224 225 226 229 234 238 235 230 241 244 252 256 245 238 233 248 245 253 220 227 225 220 194 200 208 212 215 221 222 231 198 199 213 218 218 217 216 216 221 224 225 224 215 211 211 207 203 206 207 208 210 208 210 214 217 218 217 216 217 217 217 219 220 218
218 224 229 236 235 232 228 228 232 237 231 228 230 230 229 235 239 240 240 248 249 249 247 242 240 228 228 232 240 222 223 232 220 210 207 208 209 221 227 226 238 184 203 208 218 222 222 221 219 221 226 230 226 217 214 211 209 208 207 209 210 211 211 211 213 217 218 217 217 218 218 217 218 220
220 222 224 229 233 229 231 227 225 226 229 230 229 231 229 230 233 235 236 241 250 253 255 239 240 236 229 224 233 247 230 223 226 226 217 209 213 217 220 231 241 187 191 198 212 219 223 226 224 221 221 223 228 227 221 219 214 211 211 211 211 212 213 213 213 214 217 218 217 218 219 219 219 218
228 224 225 225 225 229 230 228 228 225 224 228 231 231 232 231 227 227 232 236 240 247 249 249 246 249 251 246 236 231 234 220 222 225 223 208 217 219 223 237 238 200 184 197 204 211 219 225 227 228 226 224 224 225 226 223 220 217 216 214 213 213 214 215 216 216 217 217 217 218 219 219 220 221
229 229 232 232 230 230 231 231 235 230 225 225 229 231 233 236 228 224 226 229 235 240 243 246 246 241 240 244 244 234 234 235 223 217 221 218 218 220 217 229 234 245 187 196 205 211 216 220 224 227 228 228 226 225 225 225 224 222 222 221 218 216 216 216 216 217 218 219 220 220 219 220 220 221
251 245 241 240 236 235 232 224 236 236 230 226 226 230 232 232 236 227 225 227 230 237 241 237 237 241 240 243 247 238 241 235 233 227 218 216 212 217 222 225 233 236 234 204 189 196 206 216 218 222 226 229 229 228 228 227 227 225 224 223 222 222 221 220 219 218 219 220 221 222 222 222 222 222
246 248 246 247 245 241 239 228 229 228 227 226 227 226 231 229 225 226 227 226 231 232 236 240 237 233 238 230 242 236 242 243 233 229 229 228 216 217 219 220 227 230 231 238 205 197 201 209 215 217 220 225 227 227 229 230 229 228 226 224 223 223 223 222 221 221 221 221 222 222 223 224 225 224
238 239 247 251 252 249 249 271 322 329 345 273 240 222 227 231 225 225 225 228 227 233 236 237 236 243 243 242 237 226 225 225 228 223 222 232 232 224 223 226 226 230 233 230 229 202 190 221 227 228 226 222 219 226 225 228 227 228 228 228 226 225 224 222 221 221 221 222 222 222 223 224 224 225
242 243 246 246 254 277 301 299 281 282 282 280 280 278 269 252 239 228 228 231 232 234 234 234 234 231 235 239 243 245 237 236 236 234 225 231 233 238 242 236 225 216 226 234 229 229 210 215 224 226 230 233 209 223 218 223 223 220 223 226 225 225 226 224 222 221 221 221 221 222 222 223 224 225
240 247 251 256 256 250 252 259 259 259 256 262 267 272 271 270 269 274 257 244 241 237 239 241 241 245 247 241 245 260 264 242 232 233 236 235 235 240 238 241 230 214 211 222 238 240 217 215 229 229 231 231 232 229 231 220 216 223 222 223 225 225 226 225 224 225 224 223 222 222 222 222 224 224
241 240 238 239 247 250 251 254 240 228 234 238 242 247 251 260 262 245 244 255 253 246 245 243 238 241 237 244 245 241 247 244 237 235 239 240 239 240 238 243 251 227 195 218 230 238 236 220 230 237 234 229 228 226 221 214 211 215 222 222 222 223 225 225 225 225 226 226 226 225 224 224 224 225
239 239 241 240 233 234 240 244 250 263 231 221 230 227 234 241 241 247 244 242 249 269 259 255 250 239 240 241 239 243 246 245 247 243 238 239 241 241 242 241 246 239 186 213 230 237 237 232 218 237 240 239 235 227 215 214 210 213 217 222 223 223 225 226 227 227 227 227 227 227 227 227 227 227
251 248 248 248 248 252 252 255 254 250 253 244 215 220 231 236 236 234 237 235 236 237 248 255 256 255 251 246 242 245 245 242 244 245 252 249 241 241 247 251 251 247 208 213 230 240 234 233 228 234 244 240 241 240 226 209 212 212 213 216 219 222 224 225 227 228 228 227 227 228 228 228 228 228
259 256 254 252 252 251 250 252 260 264 263 257 258 251 238 235 239 222 214 221 222 219 227 238 245 252 255 258 256 259 255 249 247 245 246 253 258 257 258 258 252 246 234 228 229 248 245 232 236 244 245 238 237 235 234 215 214 214 213 213 215 218 220 222 224 225 226 227 227 227 227 227 228 229
247 248 245 249 252 256 255 249 239 258 272 266 266 262 261 259 256 255 247 220 207 220 224 227 236 241 245 248 255 259 261 261 263 265 257 259 257 255 251 250 246 248 238 228 232 244 248 237 238 245 252 250 244 234 243 213 209 211 213 213 214 215 217 219 222 223 225 226 227 228 228 228 229 229
254 257 259 255 256 252 254 247 212 200 220 257 259 261 262 261 260 262 256 237 223 218 222 231 235 243 252 257 258 260 261 256 261 260 276 263 253 251 253 253 249 245 244 234 220 237 247 242 241 246 249 249 248 244 243 240 196 208 211 215 215 216 216 218 219 221 222 224 226 227 227 228 229 229
265 260 264 279 271 274 268 355 57 59 342 268 260 261 264 263 263 260 260 263 241 212 223 226 229 234 239 243 248 253 254 250 248 249 248 243 245 248 247 250 246 249 240 241 216 227 238 247 247 249 255 252 246 245 247 250 229 198 212 214 217 218 219 219 219 220 221 223 225 226 228 229 230 230
287 288 262 239 273 287 306 332 321 323 302 286 270 272 271 267 262 261 269 266 265 262 241 228 232 242 244 245 243 240 237 237 233 239 247 249 248 248 245 243 246 253 246 236 189 217 235 241 242 245 249 249 244 238 241 239 245 217 194 214 223 225 224 225 225 225 226 228 230 230 230 232 223 227
285 282 277 286 258 266 288 298 308 303 303 284 275 267 265 269 268 270 269 269 276 271 271 274 258 244 242 244 238 236 233 226 222 226 234 241 245 247 245 242 241 246 247 238 197 210 230 233 249 237 244 256 258 245 238 239 237 241 240 224 217 210 216 226 231 229 229 226 227 228 227 226 204 219
294 299 297 289 53 32 17 4 3 357 344 340 304 283 262 261 314 336 305 297 299 284 280 276 270 270 269 264 260 251 246 242 234 220 220 230 234 240 244 244 244 245 244 241 220 214 227 230 239 241 245 248 254 256 250 249 236 238 234 234 246 229 192 207 217 223 218 223 225 224 224 220 200 205
303 311 322 306 20 11 358 337 332 325 321 323 304 285 293 309 312 304 303 297 287 276 267 265 269 272 273 270 264 259 253 250 244 238 231 223 226 233 237 243 247 250 248 240 211 216 236 237 231 237 246 249 254 252 253 247 244 242 244 234 232 236 238 216 191 216 220 207 212 218 222 216 203 203
317 320 320 320 345 333 321 311 303 298 295 294 279 287 297 295 296 295 280 280 275 273 271 271 269 268 268 271 273 270 269 264 261 254 240 237 236 238 239 242 244 251 259 264 261 259 252 248 233 236 246 252 255 252 245 246 241 239 243 237 232 229 231 244 242 238 235 232 228 193 208 210 205 203
326 322 322 315 307 296 290 286 284 283 277 274 279 276 273 274 274 269 269 263 261 261 266 268 266 265 264 265 267 268 270 272 275 264 244 245 242 241 243 245 245 243 246 256 255 229 246 252 251 240 239 243 250 250 252 245 242 238 241 235 235 228 231 234 241 247 250 249 255 227 196 197 199 202
337 315 296 294 295 288 283 283 277 267 264 262 254 256 258 258 258 247 243 245 249 253 254 258 260 261 259 261 265 271 274 277 280 280 280 273 266 262 256 255 265 261 249 251 250 257 257 270 262 255 249 244 253 257 254 254 254 245 238 243 244 236 231 227 240 246 246 248 248 246 251 249 213 179
281 278 305 311 310 333 357 356 23 13 356 316 311 291 255 249 246 243 243 241 243 255 266 269 268 268 270 266 269 272 273 270 268 270 268 265 271 259 245 240 243 246 248 243 246 246 242 237 250 263 263 264 257 260 265 262 251 252 252 251 256 256 246 237 231 233 237 242 246 249 249 247 255 179
359 9 351 319 282 286 284 333 304 2 2 1 17 17 21 21 11 353 321 290 275 260 253 255 261 269 271 276 277 271 268 267 266 267 271 268 262 257 248 245 250 252 248 249 243 240 245 244 224 229 247 250 246 240 243 253 256 251 248 245 244 248 242 244 240 236 237 242 247 249 244 248 247 247
12 10 40 359 15 25 21 24 21 26 28 26 25 19 14 17 10 6 1 17 14 2 349 338 328 311 299 292 282 278 274 272 268 263 259 254 253 254 251 247 248 250 255 251 244 227 226 231 239 234 234 238 244 245 247 246 249 253 253 251 256 261 261 262 264 254 242 249 253 252 251 249 246 243
352 37 29 32 29 32 25 27 21 18 16 21 27 29 24 21 19 18 24 24 13 357 348 346 338 328 328 323 322 316 305 295 293 279 265 263 264 266 263 259 260 254 250 249 244 239 233 227 223 229 223 228 234 245 249 245 252 252 249 252 254 254 257 255 259 262 266 262 256 256 254 249 252 250
28 38 42 33 33 31 34 32 29 25 18 17 17 22 24 23 23 20 22 19 5 353 349 343 340 342 339 336 335 331 326 326 327 326 325 305 296 285 274 264 260 261 260 258 259 256 247 233 227 228 234 235 237 238 234 242 249 253 254 251 256 266 262 259 254 254 255 257 265 268 267 262 250 242
36 27 42 37 38 30 33 31 26 27 28 24 20 20 19 24 18 15 19 8 0 0 358 352 351 341 350 338 333 326 329 329 321 322 325 323 322 312 299 287 275 267 263 265 261 256 255 248 244 244 238 235 238 234 234 237 249 248 254 252 254 256 262 270 274 269 278 277 277 273 268 269 267 257
40 43 36 38 36 31 33 32 28 26 23 25 20 18 16 17 17 11 11 356 357 358 360 359 5 355 353 350 340 336 337 331 331 343 338 341 340 329 337 339 337 325 309 300 300 302 290 286 263 244 237 236 232 243 243 205 219 251 254 255 258 256 250 251 256 241 254 258 255 260 263 269 271 267
43 42 39 34 35 33 30 26 24 21 18 15 14 17 15 13 9 8 360 351 3 0 2 356 8 358 357 348 338 341 345 346 343 340 341 348 341 338 343 339 339 334 337 341 348 349 357 348 334 299 263 238 237 237 248 257 218 224 255 259 264 270 281 289 294 289 265 246 242 252 262 267 272 282
42 37 40 36 31 33 29 25 18 19 15 11 6 6 9 9 7 4 1 2 4 360 357 1 357 355 352 356 352 349 348 348 346 345 338 353 356 352 345 337 331 334 335 324 331 344 335 335 9 20 9 352 327 295 283 291 261 56 70 47 350 330 320 279 272 263 276 295 295 284 276 275 277 276
38 35 33 34 27 22 20 18 13 12 15 2 6 4 357 0 2 357 1 2 357 360 357 355 357 352 347 351 353 347 346 345 350 344 340 350 360 348 341 336 327 327 333 330 335 339 357 23 20 20 10 359 340 331 333 320 316 324 312 312 305 301 288 295 289 294 300 303 301 301 295 302 307 300
32 33 26 17 21 10 13 8 6 7 0 4 2 4 348 351 352 360 356 355 355 354 353 353 349 348 352 350 349 344 344 347 342 339 342 341 350 350 347 335 328 328 327 328 333 336 354 3 2 351 337 315 296 288 284 270 271 273 273 302 328 224 311 307 313 312 311 292 293 299 301 307 303 302
7 11 22 6 9 5 358 4 357 356 353 354 352 349 336 337 342 6 348 346 347 351 348 347 350 349 347 345 347 346 342 343 347 344 342 339 345 345 340 327 333 338 334 327 331 333 348 353 341 309 285 278 277 273 270 271 283 271 288 306 313 139 154 229 297 301 280 289 284 283 280 279 283 282
350 354 2 359 354 355 349 354 349 348 346 347 343 344 340 333 355 291 293 334 348 351 345 348 348 346 346 345 344 344 341 343 342 343 341 339 339 336 339 344 338 334 331 324 323 323 329 334 330 325 322 324 302 294 293 297 303 316 343 322 231 192 192 185 230 253 287 299 291 276 278 281 273 274
339 347 340 351 340 344 343 345 341 343 340 339 340 336 337 337 341 340 344 351 351 348 349 346 349 344 342 339 341 339 339 343 340 337 335 334 333 331 330 329 329 324 319 312 311 314 320 321 328 335 335 322 338 329 298 321 318 305 301 298 331 350 320 219 196 224 244 245 250 264 292 300 297 280
334 330 334 336 333 334 337 337 336 334 335 332 333 326 343 338 339 339 340 347 346 343 341 338 342 342 339 337 334 336 342 342 335 333 332 333 328 328 327 324 323 323 322 319 319 320 317 311 300 318 328 327 333 321 320 315 301 319 319 315 320 315 301 323 333 217 227 227 235 242 253 264 260 279
331 327 328 327 325 323 333 332 329 329 325 326 324 331 325 331 337 331 335 338 343 336 330 331 335 336 337 334 332 335 339 332 328 331 334 330 330 330 333 330 331 328 323 329 329 327 332 321 304 274 269 278 275 270 273 269 281 288 284 293 305 316 326 326 325 307 290 303 185 199 231 239 254 258